This demonstration page uses our WeatherBlox Daily Observations layout. Learn more.

Hourly Observations for April 22, 2016

Temp ( °F °C ) Dew Point ( °F °C ) Humidity (%) Winds ( mph kmh ) Pressure ( in mb ) Visibility ( mi km ) Precip ( " mm )
12:15 am 00:15 Clear 47 8.2 42 5.8 85 85 NNE 5 7 30.15 1021 10 16.0934 0 0
12:35 am 00:35 Clear 48 8.9 43 6.2 83 83 Calm 30.15 1021 10 16.0934 0 0
12:55 am 00:55 Clear 47 8.6 43 6 84 84 Calm 30.15 1021 10 16.0934 0 0
1:15 am 01:15 Clear 47 8.1 42 5.6 84 84 NNE 5 7 30.15 1021 10 16.0934 0 0
1:35 am 01:35 Clear 44 6.4 40 4.7 89 89 NNE 8 13 30.18 1022 10 16.0934 0 0
1:55 am 01:55 Clear 46 7.5 42 5.5 87 87 N 6 9 30.15 1021 10 16.0934 0 0
2:15 am 02:15 Clear 46 7.6 42 5.5 87 87 N 5 7 30.15 1021 10 16.0934 0 0
2:35 am 02:35 Clear 44 6.7 41 5.2 90 90 Calm 30.18 1022 10 16.0934 0 0
2:55 am 02:55 Clear 42 5.8 40 4.3 90 90 Calm 30.18 1022 10 16.0934 0 0
3:15 am 03:15 Clear 44 6.6 41 5 90 90 N 3 6 30.18 1022 10 16.0934 0 0
3:35 am 03:35 Clear 42 5.6 39 4 90 90 N 5 7 30.18 1022 10 16.0934 0 0
3:55 am 03:55 Clear 44 6.5 41 5 90 90 Calm 30.18 1022 10 16.0934 0 0
4:15 am 04:15 Clear 40 4.7 38 3.3 91 91 WNW 3 6 30.18 1022 10 16.0934 0 0
4:35 am 04:35 Clear 41 4.8 39 3.7 93 93 WNW 3 6 30.18 1022 10 16.0934 0 0
4:55 am 04:55 Clear 40 4.5 38 3.5 93 93 Calm 30.18 1022 10 16.0934 0 0
5:15 am 05:15 Clear 40 4.5 38 3.5 93 93 Calm 30.18 1022 10 16.0934 0 0
5:35 am 05:35 Clear 39 4.1 37 3 93 93 Calm 30.18 1022 10 16.0934 0 0
5:55 am 05:55 Clear 39 4 37 2.8 92 92 Calm 30.18 1022 10 16.0934 0 0
6:15 am 06:15 Clear 39 3.9 37 2.8 93 93 WNW 3 6 30.18 1022 10 16.0934 0 0
6:35 am 06:35 Clear 39 3.7 37 2.6 93 93 WNW 5 7 30.21 1023 10 16.0934 0 0
6:55 am 06:55 Sunny 37 3 35 1.9 93 93 Calm 30.21 1023 10 16.0934 0 0
7:15 am 07:15 Sunny 37 2.9 35 1.9 93 93 Calm 30.21 1023 10 16.0934 0 0
7:35 am 07:35 Sunny 39 4.1 38 3.1 93 93 Calm 30.24 1024 10 16.0934 0 0
7:55 am 07:55 Sunny 41 5.1 38 3.5 90 90 Calm 30.21 1023 10 16.0934 0 0
8:15 am 08:15 Sunny 44 6.6 41 5 90 90 Calm 30.21 1023 10 16.0934 0 0
8:35 am 08:35 Sunny 47 8.1 42 5.8 86 86 Calm 30.18 1022 10 16.0934 0 0
8:55 am 08:55 Sunny 49 9.2 43 6.1 81 81 Calm 30.18 1022 10 16.0934 0 0
9:15 am 09:15 Sunny 50 9.8 42 5.6 75 75 Calm 30.18 1022 10 16.0934 0 0
9:35 am 09:35 Sunny 51 10.5 43 6.2 75 75 Calm 30.18 1022 10 16.0934 0 0
9:55 am 09:55 Sunny 52 11.2 43 6.1 71 71 Calm 30.15 1021 10 16.0934 0 0
10:15 am 10:15 Sunny 53 11.9 41 5.1 63 63 Calm 30.15 1021 10 16.0934 0 0
10:35 am 10:35 Sunny 55 12.5 40 4.2 57 57 Calm 30.15 1021 10 16.0934 0 0
10:55 am 10:55 Sunny 56 13.1 39 3.8 54 54 Calm 30.15 1021 10 16.0934 0 0
11:15 am 11:15 Sunny 57 13.9 40 4.6 54 54 Calm 30.15 1021 10 16.0934 0 0
11:35 am 11:35 Sunny 58 14.6 40 4.2 50 50 Calm 30.12 1020 10 16.0934 0 0
11:55 am 11:55 Sunny 59 15 38 3.6 47 47 Calm 30.12 1020 10 16.0934 0 0
12:15 pm 12:15 Sunny 60 15.4 40 4.2 47 47 SE 3 6 30.12 1020 10 16.0934 0 0
12:35 pm 12:35 Sunny 62 16.4 38 3.5 42 42 SE 3 6 30.12 1020 10 16.0934 0 0
12:55 pm 12:55 Sunny 62 16.9 37 2.5 38 38 SW 3 6 30.12 1020 10 16.0934 0 0
1:15 pm 13:15 Sunny 64 17.9 37 2.7 36 36 Calm 30.06 1018 10 16.0934 0 0
1:35 pm 13:35 Sunny 64 17.8 36 2.3 36 36 Calm 30.06 1018 10 16.0934 0 0
1:55 pm 13:55 Sunny 65 18.4 38 3.2 37 37 SSE 6 9 30.06 1018 10 16.0934 0 0
2:15 pm 14:15 Sunny 66 18.8 36 2.4 34 34 Calm 30.06 1018 10 16.0934 0 0
2:35 pm 14:35 Sunny 67 19.7 37 2.8 33 33 S 5 7 30.06 1018 10 16.0934 0 0
2:55 pm 14:55 Sunny 67 19.6 36 2.2 32 32 S 6 9 30.06 1018 10 16.0934 0 0
3:15 pm 15:15 Sunny 67 19.7 35 1.8 30 30 S 6 9 30.06 1018 10 16.0934 0 0
3:35 pm 15:35 Sunny 68 20.2 36 2 30 30 S 5 7 30.03 1017 10 16.0934 0 0
3:55 pm 15:55 Sunny 69 20.8 35 1.8 28 28 SSE 8 13 30 1016 10 16.0934 0 0
4:15 pm 16:15 Sunny 69 20.6 36 2 29 29 S 3 6 30 1016 10 16.0934 0 0
4:35 pm 16:35 Sunny 69 20.7 38 3.4 32 32 SSE 7 11 30 1016 10 16.0934 0 0
4:55 pm 16:55 Sunny 70 21 38 3.3 31 31 S 8 13 29.97 1015 10 16.0934 0 0
5:15 pm 17:15 Sunny 70 21.1 39 3.9 32 32 SSE 9 15 29.97 1015 10 16.0934 0 0
5:35 pm 17:35 Sunny 70 21.1 38 3.5 32 32 SSE 10 17 29.97 1015 10 16.0934 0 0
5:55 pm 17:55 Sunny 70 21.2 39 3.8 32 32 S 9 15 29.97 1015 10 16.0934 0 0
6:15 pm 18:15 Sunny 70 20.9 41 4.9 35 35 S 10 17 29.97 1015 10 16.0934 0 0
6:35 pm 18:35 Sunny 69 20.5 42 5.6 38 38 SSE 10 17 29.94 1014 10 16.0934 0 0
6:55 pm 18:55 Sunny 68 20.2 42 5.6 39 39 S 13 20 29.94 1014 10 16.0934 0 0
7:15 pm 19:15 Sunny 67 19.6 41 5.2 39 39 S 14 22 29.97 1015 10 16.0934 0 0
7:35 pm 19:35 Sunny 66 19 42 5.7 42 42 SSE 9 15 29.97 1015 10 16.0934 0 0
7:55 pm 19:55 Sunny 65 18.1 44 6.4 47 47 SSE 9 15 29.97 1015 10 16.0934 0 0
8:15 pm 20:15 Sunny 62 16.8 44 6.5 51 51 SSE 7 11 29.97 1015 10 16.0934 0 0
8:35 pm 20:35 Clear 58 14.5 46 7.5 63 63 SSE 6 9 30 1016 10 16.0934 0 0
8:55 pm 20:55 Clear 56 13.6 45 7.1 65 65 SSE 7 11 30 1016 10 16.0934 0 0
9:15 pm 21:15 Clear 54 12.3 45 7 70 70 SE 8 13 30.03 1017 10 16.0934 0 0
9:35 pm 21:35 Clear 54 12.1 44 6.6 69 69 SE 9 15 30.03 1017 10 16.0934 0 0
9:55 pm 21:55 Clear 54 12.4 44 6.5 68 68 SSE 8 13 30.03 1017 10 16.0934 0 0
10:15 pm 22:15 Clear 53 11.5 44 6.5 72 72 SE 9 15 30.03 1017 10 16.0934 0 0
10:35 pm 22:35 Clear 53 11.6 43 6 69 69 SE 12 19 30.03 1017 10 16.0934 0 0
10:55 pm 22:55 Clear 53 11.5 42 5.8 68 68 SE 8 13 30.03 1017 10 16.0934 0 0
11:15 pm 23:15 Clear 52 11 42 5.6 70 70 SE 8 13 30.03 1017 10 16.0934 0 0
11:35 pm 23:35 Clear 52 11 42 5.5 69 69 SE 9 15 30.03 1017 10 16.0934 0 0
11:55 pm 23:55 Clear 52 10.9 42 5.4 69 69 SE 10 17 30.03 1017 10 16.0934 0 0

Powered by AerisWeather